Home   Weather   Naples   Past weeks

Flag for Italy Past Weather in Naples, Italy — Yesterday and Last 2 Weeks

Now
72 °F

Clear.


Feels Like: 77 °F
Forecast: 59 / 78 °F
Wind: 3 mph from Northeast

Location: Naples / Capodichino

Current Time: Sep 27, 2016 at 9:10:19 PM

Latest Report: Sep 27, 2016 at 8:20 PM


Visibility: 10 mi

Pressure: 30.21 "Hg

Humidity: 47%

Dew Point: 50 °F

Location of NaplesLocation

Past Weather in Naples — Graph

°F

Naples Temperature Yesterday

Maximum temperature yesterday: 79 °F (at 2:50 PM)
Minimum temperature yesterday: 61 °F (at 6:20 AM)
Average temperature yesterday: 70 °F

High & Low Weather Summary for the Past Weeks

 TemperatureHumidityPressure
High86 °F (Sep 16, 4:50 PM)94% (Sep 16, 10:50 PM)30.24 "Hg (Sep 16, 10:50 PM)
Low59 °F (Sep 20, 6:20 AM)24% (Sep 25, 4:20 PM)29.77 "Hg (Sep 19, 4:50 AM)
Average71 °F67%30.02 "Hg
* Reported Sep 12 7:20 PM — Sep 27 7:50 PM, Naples, Weather by CustomWeather, © 2016

Note: Actual official high and low records may vary slightly from our data, if they occured in-between our weather recording intervals... More about our weather records

Advertising

Naples Weather History for the Previous 24 Hours

Scroll right to see more
 ConditionsComfort  
Time TempWeatherWind HumidityBarometerVisibility
7:50 PM
Tue, Sep 27
72 °FClear.2 mph50%30.21 "Hg10 mi
7:20 PM73 °FPassing clouds.3 mph44%30.18 "HgN/A
6:50 PM73 °FClear.1 mph50%30.18 "Hg10 mi
6:20 PM75 °FSunny.2 mph47%30.15 "Hg10 mi
5:50 PM75 °FPassing clouds.6 mph47%30.15 "HgN/A
5:20 PM75 °FPassing clouds.6 mph44%30.15 "HgN/A
4:50 PM77 °FPassing clouds.7 mph42%30.15 "HgN/A
4:20 PM77 °FPassing clouds.7 mph42%30.15 "HgN/A
3:50 PM77 °FPassing clouds.7 mph42%30.15 "HgN/A
3:20 PM79 °FPassing clouds.9 mph37%30.15 "HgN/A
2:50 PM79 °FPassing clouds.2 mph26%30.15 "HgN/A
2:20 PM79 °FPassing clouds.7 mph28%30.15 "HgN/A
1:50 PM79 °FSunny.5 mph26%30.15 "Hg10 mi
1:20 PM77 °FPassing clouds.7 mph32%30.15 "HgN/A
12:50 PM77 °FPassing clouds.6 mph30%30.15 "HgN/A
12:20 PM75 °FSunny.5 mph34%30.15 "Hg10 mi
11:50 AM75 °FSunny.5 mph34%30.15 "Hg10 mi
11:20 AM75 °FPassing clouds.5 mph34%30.15 "HgN/A
10:50 AM73 °FPassing clouds.6 mph36%30.15 "HgN/A
10:20 AM73 °FSunny.7 mph38%30.15 "Hg10 mi
9:50 AM70 °FPassing clouds.8 mph46%30.15 "HgN/A
9:20 AM70 °FPassing clouds.9 mph50%30.15 "HgN/A
8:50 AM68 °FPassing clouds.8 mph53%30.12 "HgN/A
8:20 AM66 °FPassing clouds.6 mph56%30.12 "HgN/A
7:50 AM64 °FSunny.9 mph60%30.12 "Hg10 mi
7:20 AM64 °FPassing clouds.7 mph64%30.12 "HgN/A
6:50 AM63 °FPassing clouds.8 mph64%30.12 "HgN/A
6:20 AM63 °FPassing clouds.7 mph64%30.12 "HgN/A
5:50 AM64 °FPassing clouds.8 mph60%30.12 "HgN/A
5:20 AM64 °FClear.8 mph60%30.12 "Hg10 mi
4:50 AM64 °FClear.9 mph64%30.12 "Hg10 mi
4:20 AM64 °FPassing clouds.8 mph64%30.09 "HgN/A
3:50 AM64 °FPassing clouds.7 mph64%30.12 "HgN/A
3:20 AM64 °FClear.6 mph64%30.12 "Hg10 mi
2:50 AM64 °FClear.1 mph64%30.12 "Hg10 mi
2:20 AM64 °FPassing clouds.7 mph64%30.12 "HgN/A
1:50 AM66 °FPassing clouds.8 mph64%30.12 "HgN/A
1:20 AM66 °FClear.9 mph64%30.12 "Hg10 mi
12:50 AM66 °FClear.7 mph64%30.12 "Hg10 mi
12:20 AM68 °FClear.6 mph64%30.12 "Hg10 mi
11:50 PM
Mon, Sep 26
68 °FClear.2 mph64%30.12 "Hg10 mi
11:20 PM68 °FClear.2 mph64%30.12 "Hg10 mi
10:50 PM68 °FPassing clouds.3 mph69%30.12 "HgN/A
10:20 PM68 °FClear.3 mph69%30.12 "Hg10 mi
9:50 PM68 °FClear.2 mph73%30.09 "Hg10 mi
9:20 PM70 °FClear.1 mph64%30.09 "Hg10 mi
Weather by CustomWeather, © 2016

See weather overviewHow to use our weather pages